Date,TemperatureHighF,TemperatureAvgF,TemperatureLowF,DewpointHighF,DewpointAvgF,DewpointLowF,HumidityHigh,HumidityAvg,HumidityLow,PressureMaxIn,PressureMinIn,WindSpeedMaxMPH,WindSpeedAvgMPH,GustSpeedMaxMPH,PrecipitationSumIn
2014-1-1,-200,0,200,-100,-100,-100,0,0,100,30.40,30.30,0,-999,0,0.00
2014-1-2,2,0,-9,-15,-72,-100,64,16,38,30.57,30.33,4,-666,0,0.00
2014-1-3,19,4,13,15,-77,-100,84,16,70,30.42,29.38,18,-787,0,0.00
2014-1-4,15,4,10,5,-72,-100,67,16,54,30.29,29.43,9,-727,0,0.00
2014-1-5,-5,-2,-10,-18,-74,-100,66,18,51,30.47,30.23,10,-675,0,0.00
2014-1-6,-12,-4,-18,-25,-78,-100,58,17,53,30.41,30.14,10,-696,0,0.00
2014-1-7,4,0,-6,-10,-73,-100,62,17,52,30.32,30.04,7,-686,0,0.00
2014-1-8,2,-1,-9,-12,-70,-100,70,20,53,30.54,30.24,3,-655,0,0.00
2014-1-9,21,3,7,12,-79,-100,67,12,56,30.49,29.86,12,-798,0,0.00
2014-1-10,-200,0,200,-100,-100,-100,0,0,100,29.91,29.42,0,-999,0,0.00
2014-1-11,30,4,27,24,-85,-100,83,10,75,29.67,29.41,12,-874,0,0.00
2014-1-12,-200,0,200,-100,-100,-100,0,0,100,29.58,29.28,0,-999,0,0.00
2014-1-13,29,8,27,20,-64,-100,74,20,62,29.69,29.43,9,-694,0,0.00
2014-1-14,20,3,17,9,-83,-100,65,10,59,30.07,29.42,11,-841,0,0.00
2014-1-15,15,3,6,8,-71,-100,73,19,66,30.17,29.43,10,-717,0,0.00
2014-1-16,23,4,8,10,-69,-100,65,17,52,29.91,29.30,19,-692,0,0.00
2014-1-17,11,2,0,-2,-69,-100,68,20,56,30.11,29.82,6,-676,0,0.00
2014-1-18,21,6,14,14,-66,-100,84,24,72,29.97,29.44,9,-693,0,0.00
2014-1-19,38,12,29,28,-58,-100,71,23,65,29.74,29.42,12,-661,0,0.05
2014-1-20,-200,0,200,-100,-100,-100,0,0,100,30.36,29.69,0,-999,0,0.00
2014-1-21,0,-1,-11,-11,-77,-100,61,15,55,30.47,29.94,5,-728,0,0.00
2014-1-22,5,1,-1,-6,-71,-100,61,17,49,30.55,29.89,13,-667,0,0.00
2014-1-23,-6,-3,-15,-15,-73,-100,64,20,56,30.84,30.27,9,-665,0,0.00
2014-1-24,32,6,29,29,-75,-100,90,15,70,30.25,29.42,11,-800,0,0.00
2014-1-25,6,2,3,-9,-69,-100,53,17,43,30.00,29.56,11,-654,0,0.00
2014-1-26,18,4,2,10,-68,-100,79,20,50,30.11,29.31,21,-685,0,0.00
2014-1-27,-7,-4,-15,-20,-73,-100,55,18,49,30.52,30.12,13,-644,0,0.00
2014-1-28,0,-2,-12,-12,-72,-100,66,20,55,30.47,30.06,14,-660,0,0.00
2014-1-29,29,6,0,14,-63,-100,62,19,44,30.17,29.52,14,-632,0,0.00
2014-1-30,17,3,9,11,-77,-100,80,15,62,30.09,29.37,13,-779,0,0.00
2014-1-31,7,1,-5,-5,-68,-100,69,21,56,30.23,29.95,13,-654,0,0.00
2014-2-1,20,6,14,11,-66,-100,72,20,58,30.24,29.84,9,-686,0,0.00
2014-2-2,11,2,-3,-1,-68,-100,75,21,57,30.37,30.13,8,-672,0,0.00
2014-2-3,16,4,3,4,-60,-100,78,25,56,30.40,30.09,5,-609,0,0.00
2014-2-4,8,2,4,-3,-69,-100,72,18,51,30.53,30.33,5,-672,0,0.00
2014-2-5,4,1,1,-7,-75,-100,65,17,56,30.59,30.41,7,-725,0,0.00
2014-2-6,4,0,-9,-7,-68,-100,70,22,56,30.53,30.18,15,-640,0,0.00
2014-2-7,12,2,-4,-5,-68,-100,61,17,43,30.29,30.08,13,-636,0,0.00
2014-2-8,17,2,14,6,-85,-100,68,9,61,30.18,30.01,3,-853,0,0.00
2014-2-9,6,1,-1,-8,-70,-100,61,18,49,30.45,30.09,10,-655,0,0.00
2014-2-10,4,0,-9,-10,-69,-100,67,20,53,30.56,30.36,6,-641,0,0.00
2014-2-11,12,2,-4,-2,-68,-100,74,19,50,30.52,30.00,15,-661,0,0.00
2014-2-12,24,6,20,16,-68,-100,77,20,71,30.10,29.79,6,-725,0,0.01
2014-2-13,28,6,12,19,-62,-100,77,25,66,29.79,29.36,16,-647,0,0.00
2014-2-14,14,4,2,1,-62,-100,72,23,55,30.09,29.75,6,-613,0,0.00
2014-2-15,18,4,18,14,-78,-100,85,16,77,30.06,29.71,5,-801,0,0.00
2014-2-16,18,6,9,6,-61,-100,82,24,57,30.29,29.97,11,-623,0,0.00
2014-2-17,30,4,28,24,-82,-100,80,12,79,29.99,29.59,9,-853,0,0.00
2014-2-18,40,14,29,26,-53,-100,66,23,55,29.76,29.48,6,-613,0,0.02
2014-2-19,40,13,25,29,-52,-100,89,27,60,29.84,29.63,8,-623,0,0.00
2014-2-20,-200,0,200,-100,-100,-100,0,0,100,29.65,29.23,0,-999,0,0.00
2014-2-21,16,4,6,10,-60,-100,80,30,75,29.82,29.27,13,-619,0,0.00
2014-2-22,14,4,3,4,-59,-100,73,27,64,30.18,29.82,13,-591,0,0.00
2014-2-23,16,4,3,5,-62,-100,71,24,59,30.33,30.12,13,-623,0,0.00
2014-2-24,11,3,-1,-2,-64,-100,66,22,53,30.42,30.22,8,-613,0,0.00
2014-2-25,5,0,-8,-8,-62,-100,72,25,52,30.42,30.22,11,-571,0,0.00
2014-2-26,20,4,-4,7,-62,-100,64,22,54,30.41,29.62,16,-610,0,0.00
2014-2-27,-1,-2,-12,-23,-70,-100,45,15,32,30.30,29.96,6,-603,0,0.00
2014-2-28,14,2,12,7,-83,-100,73,11,70,30.12,29.82,4,-839,0,0.00
2014-3-1,0,0,-2,-19,-82,-100,44,9,38,30.53,30.10,7,-769,0,0.00
2014-3-2,1,-2,-16,-14,-63,-100,55,22,44,30.67,30.41,8,-540,0,0.00
2014-3-3,8,1,-10,-5,-60,-100,70,25,48,30.60,30.22,5,-557,0,0.00
2014-3-4,19,6,8,7,-55,-100,77,28,56,30.32,30.08,9,-567,0,0.00
2014-3-5,23,9,11,9,-53,-100,80,26,52,30.46,30.27,10,-556,0,0.00
2014-3-6,26,10,17,20,-50,-100,81,32,71,30.35,29.82,15,-570,0,0.00
2014-3-7,34,13,28,29,-48,-100,85,32,69,30.18,29.69,10,-576,0,0.04
2014-3-8,27,11,16,13,-48,-100,76,29,54,30.34,30.16,9,-530,0,0.01
2014-3-9,43,18,25,32,-40,-100,71,31,60,30.16,29.62,15,-518,0,0.00
2014-3-10,51,22,38,35,-37,-100,78,30,54,29.69,29.55,8,-529,0,0.00
2014-3-11,42,18,37,33,-44,-100,83,25,37,29.99,29.66,9,-550,0,0.00
2014-3-12,28,11,18,12,-49,-100,63,25,44,30.17,29.99,7,-529,0,0.00
2014-3-13,49,21,28,37,-34,-100,84,34,58,30.03,29.50,11,-497,0,0.00
2014-3-14,42,15,36,33,-52,-100,77,25,57,29.94,29.48,15,-625,0,0.00
2014-3-15,30,13,21,14,-48,-100,72,24,39,30.40,29.94,9,-535,0,0.00
2014-3-16,25,10,11,10,-48,-100,55,24,43,30.52,30.03,6,-488,0,0.00
2014-3-17,38,14,26,27,-46,-100,80,30,60,30.03,29.53,13,-561,0,0.02
2014-3-18,36,14,28,27,-48,-100,86,27,60,29.79,29.58,11,-577,0,0.03
2014-3-19,38,15,27,26,-43,-100,83,32,60,29.98,29.77,7,-526,0,0.20
2014-3-20,44,19,24,31,-36,-100,93,35,52,30.02,29.86,6,-499,0,0.01
2014-3-21,44,16,34,35,-48,-100,81,29,65,30.13,29.70,16,-595,0,0.00
2014-3-22,21,8,8,4,-50,-100,64,26,47,30.53,30.14,13,-508,0,0.00
2014-3-23,25,10,7,9,-48,-100,74,28,48,30.57,30.37,7,-509,0,0.00
2014-3-24,32,13,20,25,-45,-100,87,32,39,30.37,30.11,12,-529,0,0.01
2014-3-25,22,9,10,6,-50,-100,53,24,42,30.34,30.12,11,-503,0,0.00
2014-3-26,42,16,20,25,-46,-100,67,24,46,30.18,29.56,17,-534,0,0.00
2014-3-27,38,14,33,37,-48,-100,96,37,95,29.72,29.42,4,-614,0,0.36
2014-3-28,36,16,28,21,-42,-100,74,27,44,30.24,29.73,9,-509,0,0.00
2014-3-29,43,19,20,24,-40,-100,71,22,32,30.30,30.05,9,-483,0,0.00
2014-3-30,61,26,41,43,-32,-100,66,28,50,30.03,29.71,14,-502,0,0.00
2014-3-31,59,21,47,48,-44,-100,87,29,67,29.71,29.28,12,-612,0,0.01
2014-4-1,36,14,20,25,-42,-100,81,34,64,30.12,29.36,13,-512,0,0.00
2014-4-2,43,18,20,22,-40,-100,78,27,42,30.21,30.04,9,-492,0,0.00
2014-4-3,35,12,31,30,-54,-100,86,29,76,30.04,29.76,14,-642,0,0.00
2014-4-4,41,17,26,27,-37,-100,93,36,48,30.05,29.66,14,-491,0,0.46
2014-4-5,49,20,25,37,-33,-100,92,36,60,30.13,29.93,12,-487,0,0.00
2014-4-6,61,26,42,44,-32,-100,68,28,48,29.93,29.75,11,-508,0,0.00
2014-4-7,58,26,43,44,-33,-100,89,28,40,29.81,29.71,15,-513,0,0.00
2014-4-8,51,23,35,31,-34,-100,71,27,36,29.99,29.78,13,-487,0,0.00
2014-4-9,69,29,40,43,-34,-100,65,20,32,29.95,29.46,17,-506,0,0.00
2014-4-10,59,29,46,31,-35,-100,54,16,21,29.90,29.48,17,-471,0,0.00
2014-4-11,63,28,43,36,-35,-100,62,21,28,29.93,29.85,9,-498,0,0.00
2014-4-12,57,23,45,45,-36,-100,81,32,64,29.87,29.64,11,-549,0,0.00
2014-4-13,42,20,38,38,-35,-100,87,36,63,29.89,29.70,18,-508,0,0.00
2014-4-14,36,17,27,16,-43,-100,62,20,26,30.12,29.90,14,-470,0,0.00
2014-4-15,37,16,18,9,-45,-100,65,19,23,30.20,30.04,7,-472,0,0.00
2014-4-16,38,13,33,30,-56,-100,89,23,50,30.05,29.81,12,-643,0,0.00
2014-4-17,41,18,28,28,-34,-100,86,37,53,30.32,29.94,8,-477,0,0.14
2014-4-18,51,23,29,31,-33,-100,88,29,42,30.36,30.14,14,-476,0,0.00
2014-4-19,51,8,44,36,-77,-100,65,10,55,30.14,29.91,15,-830,0,0.01
2014-4-20,-200,0,200,-100,-100,-100,0,0,100,30.00,29.87,0,-999,0,0.00
2014-4-21,-200,0,200,-100,-100,-100,0,0,100,30.04,29.81,0,-999,0,0.00
2014-4-22,-200,0,200,-100,-100,-100,0,0,100,30.10,29.99,0,-999,0,0.00
2014-4-23,-200,0,200,-100,-100,-100,0,0,100,30.05,29.84,0,-999,0,0.00
2014-4-24,-200,0,200,-100,-100,-100,0,0,100,29.85,29.61,0,-999,0,0.00
2014-4-25,-200,0,200,-100,-100,-100,0,0,100,29.87,29.65,0,-999,0,0.00
2014-4-26,-200,0,200,-100,-100,-100,0,0,100,29.97,29.81,0,-999,0,0.00
2014-4-27,66,16,40,46,-49,-100,90,30,50,29.84,29.56,17,-621,0,0.48
2014-4-28,44,43,41,41,39,37,92,86,78,29.64,29.56,16,8,0,1.07
2014-4-29,42,37,34,37,34,32,92,90,78,29.76,29.60,22,7,0,0.75
2014-4-30,45,40,35,38,36,33,93,85,72,29.75,29.71,11,4,0,0.04
2014-5-1,49,43,38,39,37,35,90,79,66,29.82,29.69,14,4,0,0.01
2014-5-2,58,50,41,44,39,35,86,68,50,29.81,29.56,12,3,0,0.00
2014-5-3,58,51,43,39,34,28,69,53,32,29.92,29.67,14,3,0,0.00
2014-5-4,57,48,37,31,27,20,69,46,25,30.11,29.93,9,2,0,0.00
2014-5-5,64,56,49,35,32,29,52,40,29,29.96,29.87,11,2,0,0.00
2014-5-6,64,57,48,38,35,30,62,45,29,29.94,29.73,17,6,0,0.00
2014-5-7,64,58,52,50,43,36,81,58,48,29.73,29.58,13,5,0,0.09
2014-5-8,70,57,51,58,53,49,96,87,64,29.73,29.45,20,3,0,0.97
2014-5-9,59,51,47,58,44,37,97,78,51,29.78,29.43,13,6,0,0.00
2014-5-10,70,56,43,53,44,34,90,66,38,29.84,29.73,12,2,0,0.07
2014-5-11,68,59,49,58,52,48,97,81,59,29.86,29.69,10,2,0,0.26
2014-5-12,61,56,48,60,54,45,97,95,89,29.79,29.60,8,2,0,0.39
2014-5-13,53,48,43,46,38,31,90,70,49,30.17,29.79,11,4,0,0.01
2014-5-14,59,49,38,38,32,26,85,54,31,30.20,30.10,10,2,0,0.00
2014-5-15,48,44,40,31,29,25,67,55,42,30.15,30.09,12,4,0,0.00
2014-5-16,54,47,39,33,27,19,77,49,27,30.10,30.02,10,2,0,0.00
2014-5-17,66,54,40,34,29,25,63,42,22,30.04,29.95,6,2,0,0.00
2014-5-18,72,62,50,43,35,29,56,38,24,30.05,29.92,15,3,0,0.00
2014-5-19,61,55,52,52,47,38,96,77,42,29.95,29.70,12,4,0,0.98
2014-5-20,77,61,50,63,55,49,97,82,42,29.83,29.70,6,1,0,0.00
2014-5-21,65,60,54,58,47,44,86,65,53,30.08,29.79,8,2,0,0.00
2014-5-22,70,59,46,46,43,39,88,59,34,30.18,30.09,7,1,0,0.00
2014-5-23,77,64,48,50,44,40,90,51,27,30.19,30.06,5,0,0,0.00
2014-5-24,81,70,62,50,45,42,55,41,26,30.10,29.97,11,2,0,0.00
2014-5-25,78,70,59,62,54,44,74,57,46,30.01,29.84,10,2,0,0.00
2014-5-26,81,72,66,66,63,60,92,75,49,29.86,29.79,11,1,0,0.01
2014-5-27,71,67,62,67,64,59,95,88,70,29.94,29.81,7,1,0,0.02
2014-5-28,81,70,57,61,56,51,92,64,39,30.02,29.93,5,1,0,0.00
2014-5-29,84,72,54,54,46,40,89,45,21,30.07,29.98,6,1,0,0.00
2014-5-30,87,77,63,64,58,43,75,52,35,30.06,29.94,7,1,0,0.00
2014-5-31,85,74,67,69,63,53,94,70,45,29.99,29.82,9,1,0,1.02
2014-6-1,71,67,64,67,64,62,96,92,80,29.84,29.67,4,1,0,1.87
2014-6-2,78,68,61,65,60,51,97,78,53,29.80,29.61,18,4,0,0.06
2014-6-3,74,65,55,57,54,50,89,68,44,29.94,29.79,6,1,0,0.00
2014-6-4,80,70,58,57,54,48,90,60,35,29.84,29.76,4,0,0,0.00
2014-6-5,75,67,61,60,58,54,89,72,50,29.87,29.79,11,2,0,0.04
2014-6-6,84,70,59,65,58,50,93,70,31,29.90,29.83,3,0,0,0.00
2014-6-7,67,58,51,61,54,50,94,88,72,30.04,29.82,9,1,0,0.35
2014-6-8,71,61,49,58,47,35,98,66,28,30.10,30.00,5,0,0,0.01
2014-6-9,70,62,57,53,51,48,83,68,50,30.02,29.93,3,0,0,0.02
2014-6-10,77,66,53,57,53,49,96,66,41,29.93,29.79,9,0,0,0.00
2014-6-11,81,71,58,62,56,54,90,61,40,29.82,29.58,10,0,0,0.11
2014-6-12,65,59,55,64,49,44,94,70,53,29.95,29.59,17,4,0,0.10
2014-6-13,76,64,50,52,46,42,82,54,30,30.00,29.83,4,1,0,0.00
2014-6-14,66,61,57,57,53,47,93,76,52,29.89,29.61,25,3,0,1.35
2014-6-15,75,66,58,61,57,53,96,76,48,29.78,29.39,18,3,0,1.26
2014-6-16,83,70,62,67,59,55,92,70,46,29.83,29.57,13,2,0,0.43
2014-6-17,82,72,62,68,62,57,87,73,52,29.79,29.61,5,0,0,0.00
2014-6-18,80,74,67,69,66,63,95,77,56,29.85,29.70,9,1,0,0.03
2014-6-19,74,68,64,67,65,63,97,90,72,29.99,29.76,16,3,0,3.90
2014-6-20,84,74,67,68,64,57,97,74,40,29.91,29.76,9,1,0,0.01
2014-6-21,84,75,66,66,60,54,92,62,35,29.85,29.75,5,0,0,0.00
2014-6-22,76,70,64,68,63,58,92,78,63,29.84,29.73,3,0,0,0.04
2014-6-23,80,73,65,69,63,58,97,74,48,29.82,29.75,5,0,0,0.01
2014-6-24,82,73,64,65,61,57,90,67,43,29.88,29.81,6,1,0,0.00
2014-6-25,70,64,58,64,57,54,91,81,65,30.02,29.89,5,1,0,0.00
2014-6-26,80,70,57,68,63,55,96,80,64,30.01,29.81,8,1,0,0.00
2014-6-27,80,74,68,70,67,65,89,79,66,29.82,29.69,11,2,0,0.00
2014-6-28,81,74,68,75,69,65,94,84,70,29.72,29.59,11,2,0,0.72
2014-6-29,84,73,63,69,63,56,93,72,38,29.69,29.61,12,3,0,0.07
2014-6-30,77,71,63,68,59,51,86,67,44,29.65,29.47,13,2,0,0.03
2014-7-1,73,65,57,61,56,49,86,72,59,29.79,29.48,13,3,0,0.02
2014-7-2,73,63,54,53,48,42,91,62,34,30.06,29.80,12,2,0,0.02
2014-7-3,77,66,56,54,49,43,83,57,30,30.15,30.05,6,1,0,0.00
2014-7-4,78,74,64,58,54,48,61,50,39,30.21,30.04,6,2,0,0.00
2014-7-5,82,74,66,68,63,56,81,68,56,30.05,29.80,11,3,0,0.00
2014-7-6,88,77,69,74,67,60,99,75,39,29.80,29.61,11,2,0,0.11
2014-7-7,85,72,64,66,62,60,92,73,45,29.71,29.56,13,1,0,0.51
2014-7-8,75,68,62,62,55,51,87,64,44,29.86,29.60,14,2,0,0.00
2014-7-9,78,68,56,58,54,50,90,63,37,29.96,29.86,6,0,0,0.00
2014-7-10,83,73,58,65,59,55,91,64,43,30.00,29.90,9,1,0,0.00
2014-7-11,79,73,64,72,66,59,94,79,62,29.96,29.87,13,3,0,1.93
2014-7-12,76,71,67,71,68,64,96,89,70,29.98,29.87,9,0,0,1.14
2014-7-13,77,69,61,65,55,46,92,64,39,29.93,29.83,11,1,0,0.00
2014-7-14,64,61,58,55,50,45,85,68,55,30.01,29.83,12,2,0,0.09
2014-7-15,71,62,56,52,50,48,82,67,47,30.05,29.97,8,1,0,0.00
2014-7-16,76,65,54,56,52,44,91,65,33,30.02,29.95,4,0,0,0.00
2014-7-17,78,68,58,59,55,53,85,64,42,30.00,29.94,6,0,0,0.00
2014-7-18,77,70,61,61,58,54,81,66,50,29.98,29.88,15,2,0,0.00
2014-7-19,78,72,66,65,61,59,80,70,57,29.88,29.82,10,2,0,0.05
2014-7-20,84,77,70,68,65,63,80,67,51,29.81,29.73,14,2,0,0.00
2014-7-21,88,81,73,76,72,66,83,73,65,29.83,29.70,13,1,0,0.00
2014-7-22,82,77,69,76,65,54,90,66,42,30.10,29.70,11,2,0,0.00
2014-7-23,80,71,60,58,55,47,85,59,34,30.20,30.09,9,1,0,0.00
2014-7-24,79,70,57,63,59,55,95,71,47,30.11,29.77,13,1,0,0.00
2014-7-25,80,72,63,69,65,58,94,79,67,29.85,29.68,6,1,0,0.59
2014-7-26,84,76,69,72,67,56,95,73,44,29.78,29.70,9,1,0,0.00
2014-7-27,76,69,63,62,58,54,82,69,52,30.07,29.73,10,2,0,0.01
2014-7-28,75,68,63,60,56,51,86,67,44,30.16,30.07,7,1,0,0.00
2014-7-29,78,68,58,60,56,55,91,67,46,30.09,29.98,8,1,0,0.00
2014-7-30,80,69,59,62,57,53,88,68,42,30.04,29.97,5,0,0,0.00
2014-7-31,82,70,59,63,58,54,89,67,40,29.99,29.93,6,0,0,0.00
2014-8-1,84,72,62,65,60,57,86,67,40,30.01,29.95,4,0,0,0.00
2014-8-2,84,73,64,64,62,59,90,71,42,30.07,30.00,4,0,0,0.00
2014-8-3,86,75,63,67,63,59,96,70,41,30.07,29.96,5,0,0,0.00
2014-8-4,79,72,66,67,64,59,96,76,56,30.02,29.96,6,0,0,0.00
2014-8-5,78,69,61,63,60,55,93,74,48,30.07,30.00,6,0,0,0.00
2014-8-6,80,71,59,65,60,57,96,72,48,30.04,29.97,5,0,0,0.00
2014-8-7,81,71,61,65,60,56,95,70,44,30.03,29.95,6,0,0,0.00
2014-8-8,81,73,65,63,60,55,85,66,43,30.04,29.97,6,0,0,0.00
2014-8-9,78,72,65,63,61,58,83,69,55,30.06,29.98,3,0,0,0.00
2014-8-10,82,73,67,68,64,60,94,72,52,30.01,29.88,6,0,0,0.11
2014-8-11,77,69,63,68,60,54,95,76,46,30.00,29.86,9,2,0,0.07
2014-8-12,78,68,57,60,55,47,96,67,35,30.03,29.95,10,1,0,0.00
2014-8-13,82,71,60,62,58,55,85,65,44,30.04,29.97,5,0,0,0.00
2014-8-14,80,69,60,61,56,49,83,63,46,30.09,29.93,3,0,0,0.00
2014-8-15,82,74,65,66,63,57,85,71,55,29.94,29.80,5,1,0,0.00
2014-8-16,84,73,66,70,67,64,94,82,58,29.84,29.77,5,1,0,0.00
2014-8-17,82,72,68,73,69,67,96,90,68,29.91,29.78,6,0,0,1.40
2014-8-18,84,73,66,73,67,61,98,83,51,29.78,29.59,9,1,0,0.10
2014-8-19,79,70,63,68,64,62,96,84,58,29.73,29.59,7,0,0,0.19
2014-8-20,82,72,63,69,66,62,98,82,59,29.81,29.73,5,0,0,0.01
2014-8-21,85,76,70,76,71,66,96,84,67,29.79,29.67,6,1,0,0.20
2014-8-22,77,73,68,71,69,66,97,88,74,29.96,29.78,3,0,0,0.00
2014-8-23,77,71,67,72,69,65,97,91,80,29.94,29.82,4,0,0,0.00
2014-8-24,87,78,73,75,71,68,92,81,63,29.83,29.71,9,1,0,0.00
2014-8-25,75,70,63,67,61,55,95,76,53,30.02,29.79,10,1,0,0.01
2014-8-26,73,63,55,60,53,48,88,71,48,30.18,30.02,5,0,0,0.00
2014-8-27,76,67,58,60,57,55,92,73,49,30.18,30.05,3,0,0,0.01
2014-8-28,69,65,59,65,61,58,95,89,76,30.08,29.83,5,1,0,0.05
2014-8-29,79,71,66,72,68,64,96,89,74,29.82,29.65,5,0,0,0.05
2014-8-30,76,70,64,69,65,62,97,85,65,29.82,29.68,6,0,0,0.17
2014-8-31,83,71,62,69,65,61,97,82,61,29.83,29.54,9,2,0,1.23
2014-9-1,76,68,64,67,61,55,97,80,50,29.75,29.56,6,1,0,0.13
2014-9-2,77,68,60,60,56,51,88,69,41,29.85,29.74,4,0,0,0.00
2014-9-3,79,69,62,71,64,56,95,84,69,29.85,29.60,7,1,0,0.13
2014-9-4,85,58,69,74,54,67,95,66,68,29.67,0.00,7,1,0,0.00
2014-9-5,-200,0,200,-100,0,200,0,0,100,0.00,0.00,0,0,0,0.00
2014-9-6,76,47,52,56,36,47,84,42,41,30.09,0.00,7,0,0,0.00
2014-9-7,75,64,55,54,51,46,82,63,38,30.06,29.90,11,1,0,0.00
2014-9-8,73,65,58,60,55,51,79,70,58,29.90,29.73,13,2,0,0.00
2014-9-9,76,66,58,68,62,57,97,87,76,29.75,29.60,5,0,0,0.06
2014-9-10,66,54,47,65,50,39,96,86,75,30.03,29.54,13,4,0,0.03
2014-9-11,56,50,43,41,39,35,86,67,45,30.30,30.04,9,1,0,0.00
2014-9-12,55,48,42,43,38,30,89,72,41,30.35,30.27,10,1,0,0.00
2014-9-13,60,49,36,42,37,31,94,67,38,30.28,30.05,6,1,0,0.00
2014-9-14,64,56,49,46,43,36,82,64,35,30.06,30.00,7,2,0,0.00
2014-9-15,61,53,46,50,44,36,94,75,39,30.13,30.03,5,0,0,0.06
2014-9-16,67,55,43,51,44,39,91,68,42,30.13,29.90,5,0,0,0.00
2014-9-17,75,63,55,56,52,47,87,67,46,29.91,29.82,3,0,0,0.00
2014-9-18,74,61,48,57,52,47,95,76,47,30.00,29.87,5,0,0,0.00
2014-9-19,82,67,57,67,59,52,86,76,58,29.88,29.54,19,2,0,0.00
2014-9-20,76,67,57,67,59,52,92,77,45,29.77,29.55,6,1,0,0.03
2014-9-21,66,60,53,52,49,47,87,69,52,30.14,29.76,11,2,0,0.00
2014-9-22,72,59,47,53,50,46,96,76,45,30.19,30.06,5,0,0,0.00
2014-9-23,73,63,52,55,51,47,83,66,47,30.12,30.03,12,1,0,0.00
2014-9-24,64,62,59,56,53,51,83,75,68,30.07,30.01,10,1,0,0.07
2014-9-25,76,65,60,62,58,55,89,77,60,30.10,30.04,4,0,0,0.00
2014-9-26,79,70,63,59,58,55,77,66,48,30.05,29.98,10,1,0,0.00
2014-9-27,81,68,64,61,58,57,80,70,44,30.03,29.95,9,1,0,0.00
2014-9-28,80,68,59,61,58,56,90,71,45,30.02,29.90,6,1,0,0.00
2014-9-29,67,61,54,56,52,46,74,70,67,30.01,29.89,6,2,0,0.00
2014-9-30,58,47,42,46,41,39,90,81,64,30.01,29.81,9,2,0,0.00
2014-10-1,58,54,51,57,50,46,95,88,80,29.82,29.73,3,0,0,0.43
2014-10-2,57,56,54,57,56,53,98,98,97,29.85,29.78,2,0,0,0.49
2014-10-3,49,44,40,46,28,25,89,55,45,29.87,29.75,15,5,0,0.01
2014-10-4,50,42,36,33,30,27,82,64,48,29.85,29.72,13,2,0,0.02
2014-10-5,48,41,34,37,32,28,85,72,54,29.72,29.57,10,1,0,0.00
2014-10-6,62,46,34,41,36,32,92,71,42,29.59,29.44,11,2,0,0.00
2014-10-7,58,48,46,44,39,31,86,71,41,29.88,29.49,5,1,0,0.01
2014-10-8,58,47,41,38,33,26,80,61,31,30.12,29.88,6,0,0,0.00
2014-10-9,53,42,34,34,31,29,85,68,43,30.24,30.12,9,0,0,0.00
2014-10-10,51,36,34,39,33,31,92,87,47,30.31,30.25,2,0,0,0.00
2014-10-11,56,37,31,39,32,29,95,84,38,30.29,30.04,3,0,0,0.00
2014-10-12,61,56,44,46,38,35,72,53,39,29.93,29.76,12,3,0,0.00
2014-10-13,55,53,50,52,50,48,94,90,83,29.81,29.76,6,1,0,0.01
2014-10-14,51,49,48,47,45,38,89,86,60,29.98,29.77,12,2,0,0.00
2014-10-15,64,53,39,41,39,36,91,61,38,30.05,29.86,4,0,0,0.00
2014-10-16,70,49,39,46,38,35,88,71,38,29.86,29.57,5,1,0,0.00
2014-10-17,58,49,46,47,42,40,79,76,67,30.08,29.58,11,2,0,0.00
2014-10-18,53,48,44,41,37,35,80,66,54,30.26,30.07,10,1,0,0.00
2014-10-19,62,46,43,44,38,36,79,76,53,30.07,29.84,10,4,0,0.00
2014-10-20,56,50,47,44,42,41,79,74,62,30.01,29.88,4,0,0,0.00
2014-10-21,54,47,38,41,39,37,95,74,61,30.19,30.14,3,0,0,0.00
2014-10-22,56,46,42,42,38,37,83,74,59,30.19,30.03,9,3,0,0.00
2014-10-23,67,55,52,50,50,49,92,84,52,29.99,29.95,6,2,0,0.09
2014-10-24,62,60,59,51,48,46,71,64,60,29.89,29.86,5,1,0,0.00
2014-10-25,62,54,45,45,33,22,60,47,22,30.07,29.89,6,1,0,0.00
2014-10-26,64,49,35,34,29,26,83,53,23,30.05,29.73,9,2,0,0.00
2014-10-27,50,48,45,35,34,34,66,61,55,29.57,29.55,0,0,0,0.00
2014-10-29,43,38,35,32,31,29,85,75,64,30.20,30.06,5,1,0,0.00
2014-10-30,49,41,33,38,32,13,85,72,41,30.38,30.02,13,2,0,0.00
2014-10-31,38,32,27,18,16,12,66,52,38,30.58,30.38,11,3,0,0.00
2014-11-1,43,37,26,22,20,18,71,52,41,30.46,30.16,12,3,0,0.00
2014-11-2,58,46,36,31,26,20,56,46,32,30.16,29.83,14,4,0,0.00
2014-11-3,54,49,44,48,40,31,82,72,53,29.83,29.73,14,2,0,0.00
2014-11-4,53,44,35,36,31,28,79,62,43,30.01,29.81,18,3,0,0.00
2014-11-5,46,40,32,39,34,28,92,80,61,30.01,29.83,9,1,0,0.01
2014-11-6,43,37,32,32,30,27,89,75,54,30.28,30.01,14,2,0,0.00
2014-11-7,49,40,32,43,31,28,85,71,59,30.19,29.66,19,4,0,0.00
2014-11-8,42,38,35,32,24,20,71,58,45,30.05,29.80,20,4,0,0.00
2014-11-9,40,36,32,32,20,5,75,52,27,29.81,29.70,10,1,0,0.00
2014-11-10,32,28,25,27,23,10,92,83,40,29.92,29.59,15,6,0,0.00
2014-11-11,26,24,18,21,16,10,86,74,58,30.29,29.91,14,4,0,0.00
2014-11-12,24,19,12,18,13,8,84,78,68,30.35,30.29,9,2,0,0.00
2014-11-13,24,20,15,19,13,9,82,73,65,30.42,30.35,11,2,0,0.00
2014-11-14,21,14,7,10,6,3,83,74,58,30.44,30.35,6,1,0,0.00
2014-11-15,23,16,5,19,12,0,89,84,80,30.36,30.11,4,0,0,0.00
2014-11-16,22,13,6,19,6,-1,89,76,60,30.11,29.88,13,4,0,0.00
2014-11-17,15,10,5,6,1,-2,77,68,55,30.06,29.93,15,4,0,0.00
2014-11-18,18,13,6,12,5,-1,79,70,56,30.09,29.77,10,3,0,0.00
2014-11-19,24,20,15,17,12,8,83,70,55,30.00,29.72,20,4,0,0.00
2014-11-20,17,11,5,8,2,-1,78,68,53,30.30,30.00,13,2,0,0.00
2014-11-21,34,21,5,30,13,0,85,72,61,30.31,29.86,16,5,0,0.00
2014-11-22,47,36,34,45,34,30,96,93,86,29.86,29.46,15,4,0,0.09
2014-11-23,52,45,32,49,42,27,95,88,77,29.45,29.32,16,3,0,0.03
2014-11-24,31,21,14,27,15,7,85,77,70,29.96,29.30,12,4,0,0.00
2014-11-25,25,18,9,15,10,4,82,70,57,30.11,29.96,4,1,0,0.00
2014-11-26,26,22,11,22,16,-4,90,77,53,30.43,30.01,7,2,0,0.00
2014-11-27,10,4,-3,0,-6,-10,77,64,54,30.58,30.32,5,1,0,0.00
2014-11-28,23,17,6,18,11,1,83,76,68,30.30,29.68,11,2,0,0.00
2014-11-29,37,28,22,29,23,18,91,81,68,29.68,29.39,9,1,0,0.18
2014-11-30,23,11,2,16,0,-7,75,60,50,30.53,29.69,16,4,0,0.00
2014-12-1,5,1,-3,-6,-13,-16,68,53,39,30.83,30.46,13,1,0,0.00
2014-12-2,22,17,4,13,6,-5,76,63,52,30.45,29.97,13,4,0,0.00
2014-12-3,22,16,11,10,7,5,78,69,54,30.36,30.02,11,2,0,0.00
2014-12-4,33,25,14,21,11,5,79,57,31,30.35,30.08,12,2,0,0.01
2014-12-5,32,30,26,29,26,21,92,86,72,30.41,30.07,6,1,0,0.00
2014-12-6,31,24,17,24,17,12,90,73,59,30.66,30.41,5,0,0,0.00
2014-12-7,35,31,26,33,25,18,94,78,68,30.53,30.00,13,4,0,0.01
2014-12-8,35,29,21,34,24,14,96,82,71,30.34,29.95,14,4,0,0.01
2014-12-9,22,19,15,19,14,9,91,80,73,30.53,30.35,7,1,0,0.00
2014-12-10,29,26,20,26,23,18,93,89,83,30.43,30.27,5,1,0,0.00
2014-12-11,32,29,27,31,26,24,94,91,87,30.27,30.18,9,1,0,0.00
2014-12-12,39,35,33,38,33,31,96,91,88,30.20,30.05,10,2,0,0.00
2014-12-13,50,44,38,48,42,36,96,92,85,30.05,29.88,10,3,0,0.00
2014-12-14,51,49,47,50,48,46,97,95,93,29.89,29.75,10,2,0,0.02
2014-12-15,51,41,31,51,40,30,99,93,95,29.83,29.63,12,2,0,0.27
2014-12-16,26,19,14,24,14,8,91,77,74,30.31,29.84,13,3,0,0.00
2014-12-17,19,14,8,10,8,3,85,77,67,30.37,30.30,6,0,0,0.00
2014-12-18,22,16,9,15,11,5,86,81,72,30.36,30.28,3,0,0,0.00
2014-12-19,30,26,21,26,22,15,87,83,79,30.29,30.16,6,1,0,0.00
2014-12-20,32,21,29,29,18,26,92,60,81,30.16,30.05,7,1,0,0.00
2014-12-21,-200,0,200,-100,0,200,0,0,100,30.05,29.64,0,0,0,0.00
2014-12-22,-200,0,200,-100,0,200,0,0,100,29.64,29.51,0,0,0,0.00
2014-12-23,-200,0,200,-100,0,200,0,0,100,29.80,29.53,0,0,0,0.00
2014-12-24,-200,0,200,-100,0,200,0,0,100,29.79,29.52,0,0,0,0.00
2014-12-25,-200,0,200,-100,0,200,0,0,100,29.80,29.52,0,0,0,0.00
2014-12-26,-200,0,200,-100,0,200,0,0,100,30.03,29.78,0,0,0,0.00
2014-12-27,24,4,15,18,3,6,77,16,70,30.14,29.93,9,1,0,0.03
2014-12-28,23,5,12,16,4,8,81,21,73,30.40,30.02,3,0,0,0.00
2014-12-29,7,2,4,-4,-1,-6,66,16,55,30.74,30.36,5,0,0,0.00
2014-12-30,2,0,-5,-10,-3,-13,69,18,58,30.87,30.59,12,1,0,0.00
2014-12-31,13,3,-2,0,-1,-9,70,20,52,30.66,29.98,21,3,0,0.00
2015-1-1,32,9,20,22,6,14,75,21,65,30.17,29.77,10,1,0,0.00
2015-1-2,-200,0,200,-100,0,200,0,0,100,30.18,29.91,0,0,0,0.00